STARLINK-35284 (65741 NORAD) Tracking and Keplerian Element Data

This shows tracking and keplerian element data for the satellite.

Feedback or suggestion? Click here.




ElementValue
Catalog65741
NameSTARLINK-35284
Epoch Orbit1436
Epoch Day354.15181848
Epoch Year2025
RAAN342.5046
Inclination53.1607
Eccentricity0.0002286
Argument of Perigee39.6516
Mean Anonmoly320.4651
Mean Motion15.30205823
Decay Rate0.00016166
L11 65741U 25216H 25354.15181848 .00016166 00000+0 55663-3 0 9991
L22 65741 53.1607 342.5046 0002286 39.6516 320.4651 15.30205823 14363



Live tracking and technical data element details for STARLINK-35284 (NORAD 65741). STARLINK-35284 can be tracked NOW for your location showing map with azimuth and elevation plus other details from your city location.







IsCatalogInMostPopularTable: catalog: 65741, numindb: 3
Update: records affected: 1



GetName: 65741 STARLINK-35284

Hit Count: updated at: Sun, 08 Feb 2026 08:47:26 GMT